Temp
79 78 78 78 77 76 76 76 76 76 76 76 76 76 75 75 75 76 76 75 75 76 76 75 75 76 75 75 74 75 75 76 75 75 75 75 75 75 74 74 73 73 73 73 73 73 72 72 73 73 74 74 74 73 75 79 80 77 76 75 73 74
78 78 78 77 77 77 76 77 77 76 76 76 76 76 76 76 77 76 76 75 76 76 76 76 76 77 75 76 75 75 76 75 75 75 74 74 75 75 74 74 73 73 73 73 73 72 72 73 73 74 73 74 72 73 78 79 79 78 76 74 73 73
76 77 76 75 76 77 77 77 77 76 76 76 77 76 76 77 77 77 77 77 75 74 74 75 76 77 78 76 76 75 75 75 75 75 74 75 75 75 74 73 74 73 73 72 73 73 73 73 73 75 74 73 72 74 80 79 77 76 75 73 72 74
75 73 73 73 72 74 75 74 75 76 76 75 74 74 73 74 75 76 77 74 72 73 72 72 75 80 78 76 74 75 75 75 75 74 74 74 75 75 75 74 73 74 73 74 74 76 77 76 74 73 72 73 74 78 78 78 78 76 74 75 74 74
75 74 72 70 70 69 70 70 72 72 73 73 72 71 71 71 72 72 73 73 73 73 73 71 71 72 75 76 74 74 73 74 74 74 74 74 74 75 74 74 74 73 73 75 76 78 78 77 76 76 75 75 78 79 80 79 77 76 74 73 72 74
73 72 71 70 70 71 71 69 70 72 73 73 73 72 72 71 71 72 73 73 75 73 72 70 71 72 72 75 75 74 73 74 75 75 74 74 76 74 74 76 75 75 75 77 79 79 80 78 78 79 78 79 78 79 80 79 76 74 72 71 72 74
72 71 71 71 71 70 69 70 71 71 73 73 72 72 71 71 71 72 73 73 72 73 70 70 70 70 70 71 74 75 74 75 75 75 75 75 76 76 76 76 76 75 77 79 81 82 82 81 79 80 78 80 79 80 79 79 76 74 72 71 73 74
72 72 71 72 71 70 69 69 71 72 72 72 72 71 72 72 71 71 73 73 73 73 72 70 70 70 70 70 70 74 76 76 75 75 76 76 77 77 77 76 77 79 79 81 82 81 81 81 81 79 80 79 80 79 78 79 77 75 73 71 72 73
72 72 71 72 71 70 70 71 71 71 71 72 72 72 72 73 72 72 74 74 73 73 72 72 72 71 71 71 71 72 73 75 77 77 76 76 77 76 76 77 76 78 78 80 80 79 81 80 79 79 78 79 79 78 78 78 78 76 74 72 71 72
73 73 72 73 71 70 71 71 71 71 72 73 72 73 74 73 74 73 73 74 74 73 72 73 73 72 72 71 71 71 71 71 73 76 76 76 76 76 76 76 77 78 81 80 81 79 79 79 80 78 78 77 77 78 76 77 78 77 75 72 71 71
75 75 74 73 72 72 72 72 72 72 73 74 74 74 73 73 73 72 72 73 73 74 73 74 74 73 72 72 71 71 70 71 71 71 69 73 77 77 77 76 77 77 78 78 74 77 79 77 79 79 79 79 76 77 77 76 77 77 74 72 71 71
76 75 73 73 72 72 72 73 73 73 73 75 76 75 73 73 72 72 72 72 72 73 74 74 74 74 73 72 71 71 70 70 69 69 68 68 73 77 77 79 79 78 77 74 72 71 77 77 78 80 80 77 76 76 77 76 76 77 75 73 72 71
76 75 74 73 73 74 74 75 75 74 75 76 76 77 75 74 72 71 71 72 72 72 74 74 73 75 74 72 71 70 70 70 69 70 69 70 72 76 77 76 76 77 74 73 70 70 74 78 77 77 77 77 77 77 76 76 76 75 74 75 73 72
75 74 75 75 75 76 75 76 77 77 77 77 77 77 77 76 72 71 70 70 70 72 73 75 74 73 73 73 71 71 70 70 70 70 70 70 70 72 73 75 76 76 74 70 69 70 66 73 77 78 76 77 76 76 76 76 74 75 74 74 74 72
75 75 76 76 75 76 77 78 79 78 79 78 78 77 77 76 74 73 72 69 69 70 71 72 73 72 70 70 72 71 70 71 71 71 69 70 70 69 69 71 74 73 71 71 71 73 72 73 74 73 74 75 76 75 74 73 74 75 76 75 75 74
76 76 76 77 77 77 78 78 79 80 78 79 78 78 77 77 76 76 75 76 72 71 71 71 72 72 72 73 74 72 71 72 71 70 69 69 70 67 69 70 73 74 68 68 72 68 69 70 71 69 70 74 74 73 74 74 73 74 75 75 74 74
76 77 77 78 78 78 78 79 79 78 79 76 74 73 72 72 72 73 72 71 71 72 71 70 70 72 70 71 72 72 73 72 71 70 69 68 68 70 70 72 72 73 71 68 71 71 69 69 68 68 70 73 74 74 72 72 73 73 75 73 73 73
78 78 77 77 77 77 77 78 77 78 76 77 76 75 73 72 70 70 69 69 69 70 71 71 73 73 71 71 70 69 71 71 71 70 69 68 67 68 69 69 68 70 72 71 68 68 69 69 67 68 67 70 73 73 72 72 72 72 72 72 71 71
77 78 77 78 78 78 78 77 77 76 75 76 75 75 73 70 69 70 69 70 69 70 72 74 75 74 73 72 73 71 73 72 71 69 69 68 68 68 68 69 68 68 69 67 65 65 66 68 68 67 67 68 72 72 72 72 72 71 69 69 70 72
77 77 77 77 77 77 77 76 76 76 76 73 72 73 74 71 70 69 70 69 68 69 72 72 73 74 74 73 73 73 72 72 70 69 68 67 67 67 67 67 67 67 67 67 66 66 66 66 65 65 65 68 72 72 72 71 70 70 69 69 70 70
76 77 77 76 76 76 74 75 75 76 75 75 73 72 71 71 71 70 71 70 70 70 71 73 72 71 72 72 72 72 72 72 71 69 68 68 68 68 68 68 68 67 66 65 65 67 67 67 64 63 65 67 69 72 71 70 70 69 69 70 69 69
76 77 76 76 75 75 76 76 75 74 74 74 74 71 69 69 70 70 70 71 71 71 71 71 71 71 71 71 71 71 71 71 71 70 69 69 69 69 69 68 68 65 67 65 64 66 67 65 62 62 62 64 66 68 67 69 68 68 68 69 68 69
75 76 75 76 75 75 76 76 75 75 75 74 73 71 72 71 71 71 71 71 71 72 72 71 71 71 71 72 72 71 71 70 71 70 68 68 69 68 68 68 67 66 64 65 65 68 67 66 64 65 66 65 61 60 63 64 67 68 69 68 69 69
75 76 76 76 76 76 76 77 77 77 77 75 74 74 73 73 72 71 70 71 72 72 73 73 73 72 73 73 73 71 71 70 70 70 69 68 68 67 68 67 66 66 65 63 63 64 68 68 65 62 59 62 62 62 58 61 63 66 68 69 69 68
75 75 75 76 76 76 75 75 76 76 76 75 74 73 72 71 71 72 72 72 72 73 73 73 74 74 74 73 73 72 71 71 70 69 68 67 68 68 68 68 67 65 65 64 63 63 66 68 67 66 65 63 60 57 60 62 64 63 67 67 68 69
73 74 75 76 76 75 74 73 73 72 71 70 70 69 68 69 71 70 71 74 75 75 75 74 74 75 75 75 73 73 72 71 69 69 68 67 68 68 67 67 68 66 65 66 65 65 64 67 67 67 69 68 66 62 61 63 63 58 66 68 67 69
72 73 73 73 75 74 74 73 73 73 73 72 70 71 72 74 73 73 74 74 75 75 75 74 74 76 75 75 74 73 72 71 71 69 69 67 66 67 67 67 68 67 66 66 65 62 63 64 65 65 66 67 69 68 68 63 60 61 58 62 64 65
72 72 72 73 73 73 73 72 72 73 73 72 72 72 73 73 75 74 74 74 75 75 75 75 74 74 76 74 74 73 72 71 70 70 69 67 67 67 67 68 68 68 66 66 65 63 63 63 62 62 64 63 64 68 70 69 66 61 62 59 60 65
70 71 71 72 71 72 73 72 72 72 71 72 73 73 74 75 74 74 73 73 72 73 73 74 74 74 73 73 73 72 72 69 68 67 68 68 67 67 67 67 66 65 64 65 65 65 64 63 63 61 63 62 63 67 68 68 69 68 63 61 60 61
68 69 70 70 70 71 71 71 71 71 71 71 72 72 73 72 72 73 72 71 67 69 72 72 73 73 73 74 69 69 70 70 69 68 67 67 67 67 65 66 66 65 66 66 66 65 64 64 64 64 64 64 64 66 66 66 66 65 65 64 60 62
67 68 68 68 69 69 70 71 70 69 69 69 70 71 70 70 72 72 72 71 69 69 70 71 72 71 69 69 69 70 68 70 70 68 67 66 66 66 66 66 67 66 66 66 65 65 64 64 64 64 65 66 67 67 65 64 64 65 64 61 60 61
67 68 68 68 68 68 68 68 68 69 69 69 69 69 69 69 70 71 70 70 71 71 70 70 70 68 68 68 67 67 68 68 70 69 68 67 67 67 66 66 66 65 66 67 66 65 64 63 64 63 64 66 67 68 67 66 68 67 66 64 64 62
66 67 67 67 67 67 67 67 67 67 67 67 67 67 69 69 69 69 70 70 69 69 69 68 69 68 69 68 67 68 67 65 68 69 69 68 67 67 67 66 66 67 66 67 66 65 64 64 64 64 64 65 65 66 67 68 69 67 67 67 65 62
66 67 67 67 67 67 67 67 67 66 66 66 66 66 67 68 68 69 69 68 69 68 68 68 68 68 68 68 67 68 68 68 69 70 70 70 69 68 68 67 67 66 67 67 67 66 66 66 65 66 66 64 64 64 66 65 67 68 66 66 65 64
67 68 68 67 67 67 67 67 67 67 66 66 66 66 67 68 68 68 68 69 69 69 68 69 68 69 69 67 67 66 66 66 68 69 70 70 69 69 68 67 66 66 66 67 66 66 65 66 65 66 65 65 64 64 65 64 66 67 68 67 66 65
67 67 66 68 67 67 67 67 67 66 66 66 66 66 67 67 67 67 67 67 67 68 69 68 69 68 68 68 67 65 65 66 67 68 68 68 68 67 67 66 65 64 65 67 66 66 65 66 66 66 66 67 66 64 66 66 68 67 68 67 66 67
67 67 67 67 66 67 66 66 66 68 66 66 66 66 66 66 66 67 67 67 66 67 69 69 69 70 69 68 68 67 66 65 66 66 67 67 66 66 68 67 65 64 64 65 66 65 65 65 66 66 66 67 67 65 64 68 69 68 67 66 67 66
MSLP
1014.97 1015.25 1015.49 1015.81 1016.13 1016.41 1016.61 1016.73 1016.85 1016.93 1017.05 1017.13 1017.17 1017.13 1017.13 1017.09 1017.13 1017.25 1017.37 1017.57 1017.69 1017.73 1017.85 1017.97 1018.05 1018.05 1018.13 1018.13 1018.17 1018.21 1018.21 1018.25 1018.33 1018.37 1018.41 1018.37 1018.29 1018.25 1018.25 1018.25 1018.25 1018.25 1018.21 1018.13 1018.09 1018.01 1017.93 1017.85 1017.77 1017.65 1017.53 1017.45 1017.37 1017.25 1017.05 1016.81 1017.13 1017.65 1018.05 1018.37 1018.69 1018.93
1015.25 1015.45 1015.65 1016.01 1016.33 1016.57 1016.73 1016.81 1016.89 1017.01 1017.05 1017.13 1017.17 1017.13 1017.09 1017.05 1017.13 1017.25 1017.37 1017.53 1017.65 1017.73 1017.81 1017.89 1017.97 1018.05 1018.17 1018.21 1018.21 1018.25 1018.33 1018.37 1018.41 1018.49 1018.49 1018.49 1018.45 1018.41 1018.37 1018.33 1018.33 1018.29 1018.29 1018.21 1018.13 1018.05 1017.97 1017.89 1017.85 1017.77 1017.65 1017.57 1017.53 1017.37 1016.85 1016.89 1017.21 1017.69 1018.17 1018.53 1018.81 1019.05
1015.29 1015.57 1016.13 1016.61 1016.65 1016.73 1016.69 1016.61 1016.69 1016.81 1016.93 1016.93 1016.85 1016.81 1016.89 1016.89 1017.01 1017.13 1017.25 1017.25 1017.53 1017.81 1017.93 1017.97 1017.97 1018.01 1018.05 1018.25 1018.29 1018.33 1018.37 1018.45 1018.53 1018.57 1018.61 1018.61 1018.53 1018.49 1018.45 1018.41 1018.33 1018.33 1018.37 1018.33 1018.17 1018.05 1017.93 1017.93 1017.85 1017.77 1017.73 1017.69 1017.61 1017.29 1016.85 1017.17 1017.49 1017.89 1018.33 1018.65 1018.89 1019.05
1014.93 1015.45 1016.01 1016.73 1017.25 1016.73 1016.29 1016.25 1016.37 1016.53 1016.61 1016.69 1016.61 1016.73 1016.89 1016.89 1016.93 1016.97 1016.89 1017.13 1017.53 1017.73 1018.01 1018.17 1018.17 1017.93 1017.97 1018.13 1018.37 1018.37 1018.41 1018.49 1018.57 1018.61 1018.65 1018.69 1018.65 1018.57 1018.49 1018.49 1018.41 1018.45 1018.53 1018.45 1018.25 1017.93 1017.81 1017.85 1017.81 1017.77 1017.77 1017.65 1017.53 1017.09 1017.09 1017.21 1017.69 1018.09 1018.45 1018.73 1018.97 1019.05
1014.73 1015.17 1015.69 1015.97 1016.01 1015.61 1015.21 1015.85 1016.41 1016.45 1016.53 1016.57 1016.57 1016.73 1016.65 1016.61 1016.81 1016.93 1016.85 1017.01 1017.37 1017.81 1018.09 1017.97 1017.85 1017.93 1017.81 1017.93 1018.13 1018.29 1018.37 1018.45 1018.49 1018.57 1018.61 1018.65 1018.65 1018.57 1018.57 1018.53 1018.49 1018.53 1018.49 1018.41 1018.21 1017.93 1017.61 1017.69 1017.57 1017.61 1017.61 1017.49 1017.21 1017.05 1017.05 1017.29 1017.69 1018.17 1018.53 1018.85 1019.09 1019.13
1015.09 1015.41 1015.57 1015.57 1015.29 1014.97 1015.17 1016.09 1016.37 1016.33 1016.37 1016.41 1016.45 1016.53 1016.45 1016.29 1016.73 1017.01 1016.81 1016.85 1017.21 1017.77 1018.01 1018.05 1017.89 1018.01 1017.81 1017.69 1017.77 1017.93 1018.13 1018.17 1018.29 1018.37 1018.37 1018.57 1018.45 1018.53 1018.61 1018.41 1018.33 1018.37 1018.29 1018.09 1017.81 1017.65 1017.37 1017.33 1017.37 1017.25 1017.29 1017.21 1017.09 1017.01 1017.05 1017.33 1017.89 1018.33 1018.69 1018.93 1019.13 1019.29
1014.97 1015.17 1015.33 1015.29 1015.29 1015.37 1015.49 1015.61 1015.69 1015.93 1016.05 1016.21 1016.41 1016.53 1016.41 1016.25 1016.61 1017.05 1016.77 1016.81 1017.25 1017.65 1018.05 1018.09 1018.09 1018.09 1017.97 1017.85 1017.77 1017.65 1017.89 1017.93 1018.13 1018.17 1018.17 1018.37 1018.29 1018.33 1018.45 1018.29 1018.21 1018.17 1018.01 1017.81 1017.57 1017.29 1017.13 1017.17 1017.13 1017.29 1017.33 1017.33 1017.17 1017.09 1017.01 1017.45 1017.85 1018.25 1018.61 1018.85 1018.97 1019.25
1015.01 1015.25 1015.45 1015.37 1015.17 1015.17 1015.05 1015.21 1015.41 1015.53 1015.73 1016.05 1016.53 1016.77 1016.57 1016.33 1016.37 1016.81 1016.77 1016.85 1017.09 1017.37 1017.81 1018.05 1018.09 1017.97 1017.89 1018.05 1017.97 1017.65 1017.53 1017.61 1017.85 1018.01 1018.01 1018.09 1018.17 1018.17 1018.29 1018.09 1018.09 1018.05 1017.89 1017.65 1017.49 1017.29 1017.21 1017.21 1017.17 1017.21 1017.41 1017.29 1017.13 1017.05 1017.05 1017.17 1017.65 1018.13 1018.49 1018.85 1019.05 1019.17
1015.17 1015.33 1015.53 1015.53 1015.65 1015.65 1015.53 1015.37 1015.45 1015.65 1015.97 1016.25 1016.57 1016.81 1016.53 1016.33 1016.37 1016.37 1016.57 1016.77 1016.97 1017.41 1017.65 1017.77 1017.89 1017.89 1017.97 1018.17 1017.93 1017.69 1017.65 1017.61 1017.53 1017.73 1017.89 1018.01 1018.05 1018.05 1018.09 1018.05 1017.97 1017.93 1017.81 1017.65 1017.45 1017.41 1017.33 1017.29 1017.37 1017.29 1017.37 1017.41 1017.29 1017.21 1017.13 1017.21 1017.53 1017.93 1018.41 1018.77 1018.97 1019.13
1014.85 1014.93 1015.17 1015.29 1015.49 1015.57 1015.57 1015.49 1015.45 1015.61 1015.77 1015.93 1016.17 1016.45 1016.37 1016.41 1016.29 1016.21 1016.37 1016.61 1016.85 1017.17 1017.53 1017.65 1017.69 1017.73 1017.85 1017.89 1017.77 1017.65 1017.57 1017.53 1017.65 1017.53 1017.61 1017.93 1017.81 1017.85 1018.01 1017.97 1017.89 1017.81 1017.69 1017.69 1017.61 1017.41 1017.37 1017.45 1017.53 1017.45 1017.37 1017.45 1017.45 1017.37 1017.25 1017.33 1017.37 1017.93 1018.33 1018.69 1018.93 1019.13
1014.61 1014.77 1015.01 1015.17 1015.17 1015.33 1015.41 1015.53 1015.49 1015.61 1015.77 1015.85 1015.89 1016.01 1016.13 1016.21 1016.29 1016.21 1016.21 1016.49 1016.73 1016.93 1017.13 1017.17 1017.33 1017.49 1017.57 1017.61 1017.73 1017.73 1017.69 1017.49 1017.53 1017.53 1017.53 1017.85 1017.53 1017.61 1017.73 1017.85 1017.93 1017.81 1017.69 1017.85 1018.09 1017.69 1017.53 1017.73 1017.61 1017.53 1017.41 1017.53 1017.57 1017.41 1017.45 1017.33 1017.29 1017.81 1018.29 1018.57 1018.85 1019.09
1014.49 1014.61 1014.81 1014.97 1015.17 1015.37 1015.41 1015.45 1015.49 1015.57 1015.61 1015.65 1015.69 1015.77 1015.93 1016.21 1016.41 1016.33 1016.29 1016.57 1016.77 1016.89 1016.89 1016.89 1017.05 1017.33 1017.53 1017.65 1017.77 1017.81 1017.77 1017.81 1017.89 1017.81 1017.33 1017.25 1017.65 1017.33 1017.45 1017.57 1017.61 1017.57 1017.61 1017.73 1017.93 1018.05 1017.77 1017.65 1017.61 1017.49 1017.41 1017.53 1017.49 1017.57 1017.53 1017.41 1017.41 1017.57 1018.01 1018.41 1018.69 1018.93
1014.49 1014.61 1014.73 1014.93 1015.05 1015.17 1015.25 1015.25 1015.33 1015.37 1015.29 1015.29 1015.33 1015.37 1015.61 1015.85 1016.09 1016.33 1016.21 1016.33 1016.61 1016.61 1016.53 1016.69 1016.89 1017.09 1017.41 1017.57 1017.73 1017.85 1017.93 1017.89 1017.81 1017.85 1017.65 1017.01 1017.25 1017.37 1017.33 1017.49 1017.69 1017.61 1017.73 1017.93 1018.05 1018.09 1018.13 1017.69 1017.57 1017.49 1017.41 1017.57 1017.57 1017.57 1017.45 1017.53 1017.57 1017.65 1017.85 1018.13 1018.41 1018.77
1014.65 1014.77 1014.81 1014.85 1014.93 1015.01 1015.01 1014.93 1014.93 1014.97 1014.93 1015.01 1015.13 1015.21 1015.29 1015.53 1015.85 1016.25 1016.77 1016.69 1016.41 1016.33 1016.53 1016.73 1017.01 1017.21 1017.41 1017.69 1017.77 1017.77 1017.89 1017.93 1017.81 1017.69 1017.69 1017.69 1017.41 1017.25 1017.53 1017.57 1017.65 1017.73 1017.93 1018.41 1018.53 1018.57 1019.21 1018.57 1017.65 1017.37 1017.53 1017.57 1017.61 1017.57 1017.45 1017.61 1017.69 1017.77 1017.81 1017.93 1018.17 1018.61
1014.61 1014.73 1014.81 1014.85 1014.97 1014.89 1014.89 1014.85 1014.77 1014.85 1014.81 1014.81 1014.89 1015.01 1015.05 1015.21 1015.77 1016.37 1016.81 1017.13 1017.17 1017.29 1017.45 1017.61 1017.33 1017.53 1017.93 1018.05 1017.77 1017.77 1017.77 1017.69 1017.65 1017.61 1017.61 1017.69 1017.81 1017.21 1017.21 1017.73 1017.53 1017.85 1017.89 1018.09 1018.21 1018.29 1018.77 1018.29 1017.85 1018.09 1017.97 1017.61 1017.65 1017.61 1017.61 1017.77 1017.77 1017.93 1017.97 1017.97 1018.01 1018.29
1014.69 1014.77 1014.89 1014.81 1014.89 1014.85 1014.81 1014.77 1014.73 1014.69 1014.89 1014.89 1015.05 1015.21 1015.21 1015.13 1015.37 1015.77 1016.17 1016.33 1016.89 1017.41 1017.65 1017.85 1017.45 1017.33 1017.49 1017.57 1017.57 1017.77 1017.77 1017.61 1017.57 1017.53 1017.53 1017.65 1017.65 1017.49 1017.25 1017.61 1017.53 1017.53 1018.01 1018.09 1018.09 1018.41 1018.37 1018.21 1018.33 1018.89 1018.61 1017.85 1017.73 1017.69 1017.85 1017.89 1017.97 1018.01 1017.93 1017.97 1018.09 1018.25
1014.65 1014.69 1014.69 1014.65 1014.73 1014.77 1014.77 1014.85 1014.89 1015.01 1015.17 1015.45 1015.53 1015.69 1015.89 1016.29 1016.37 1016.69 1016.85 1017.29 1017.45 1017.37 1017.85 1018.01 1017.61 1017.13 1017.13 1017.41 1017.57 1017.69 1017.73 1017.69 1017.49 1017.45 1017.49 1017.57 1017.69 1017.49 1017.33 1017.29 1017.37 1017.33 1017.53 1018.09 1018.21 1018.25 1018.45 1018.37 1018.37 1018.41 1018.37 1017.89 1017.85 1017.85 1017.97 1018.01 1018.01 1018.01 1017.89 1018.09 1018.13 1018.21
1014.37 1014.45 1014.61 1014.73 1014.81 1014.93 1014.97 1014.97 1015.09 1015.25 1015.49 1015.49 1015.37 1015.41 1015.61 1016.17 1016.97 1017.05 1017.21 1017.49 1017.25 1017.17 1017.25 1017.53 1017.21 1016.85 1017.05 1017.41 1017.49 1017.69 1017.65 1017.49 1017.41 1017.29 1017.33 1017.45 1017.61 1017.61 1017.49 1017.25 1017.41 1017.41 1017.53 1017.89 1018.37 1018.65 1018.41 1018.45 1018.21 1018.49 1018.37 1018.29 1017.93 1017.97 1017.97 1018.01 1017.97 1017.97 1018.05 1018.13 1018.21 1018.29
1014.41 1014.41 1014.57 1014.61 1014.69 1014.77 1014.89 1015.09 1015.17 1015.45 1015.57 1015.41 1015.29 1015.41 1015.89 1016.25 1016.13 1016.49 1016.29 1015.97 1015.69 1016.09 1016.49 1016.57 1016.45 1016.45 1016.53 1016.65 1016.81 1017.13 1017.13 1017.13 1017.09 1017.09 1017.17 1017.33 1017.37 1017.49 1017.57 1017.41 1017.41 1017.45 1017.49 1017.89 1018.33 1019.21 1019.37 1018.77 1018.45 1018.73 1018.81 1018.89 1018.05 1018.05 1017.93 1017.93 1017.97 1018.09 1018.17 1018.21 1018.25 1018.25
1014.41 1014.45 1014.57 1014.73 1014.81 1014.93 1014.97 1015.17 1015.41 1015.37 1015.45 1015.81 1015.97 1015.77 1015.77 1015.89 1015.77 1015.73 1015.85 1015.81 1015.73 1016.05 1015.93 1015.97 1016.17 1016.13 1016.17 1016.33 1016.45 1016.53 1016.69 1016.73 1016.89 1016.97 1017.09 1017.29 1017.29 1017.21 1017.17 1017.29 1017.41 1017.53 1017.61 1017.73 1017.69 1018.17 1018.77 1019.29 1019.69 1019.65 1019.37 1019.13 1017.97 1017.89 1018.01 1018.05 1018.13 1018.25 1018.21 1018.17 1018.25 1018.25
1014.57 1014.53 1014.69 1014.93 1015.05 1015.17 1015.49 1015.45 1015.33 1015.37 1015.65 1015.57 1015.73 1015.69 1015.77 1015.85 1015.81 1015.89 1016.13 1015.97 1015.73 1015.65 1015.65 1015.73 1015.89 1015.97 1016.05 1016.21 1016.33 1016.37 1016.41 1016.45 1016.49 1016.77 1016.89 1017.01 1016.97 1016.97 1016.81 1016.85 1017.09 1017.25 1017.61 1017.73 1017.69 1017.65 1017.97 1018.57 1019.73 1020.01 1019.65 1018.81 1018.17 1017.89 1018.05 1018.17 1018.29 1018.33 1018.29 1018.21 1018.25 1018.37
1014.61 1014.57 1014.73 1014.93 1015.09 1015.17 1015.17 1015.33 1015.45 1015.61 1015.65 1015.61 1015.65 1015.77 1015.85 1015.73 1015.77 1015.85 1015.89 1015.69 1015.45 1015.33 1015.29 1015.53 1015.85 1015.97 1016.05 1016.09 1016.17 1016.21 1016.21 1016.17 1016.13 1016.33 1016.49 1016.57 1016.69 1016.77 1016.81 1016.89 1016.97 1017.29 1017.17 1017.41 1017.61 1017.49 1017.69 1018.29 1019.29 1019.69 1019.45 1018.81 1018.65 1018.45 1018.25 1018.37 1018.45 1018.45 1018.37 1018.33 1018.41 1018.45
1014.73 1014.77 1014.85 1014.93 1014.97 1015.21 1015.13 1015.17 1015.29 1015.37 1015.41 1015.53 1015.33 1015.37 1015.33 1015.33 1015.41 1015.57 1015.45 1015.45 1015.41 1015.29 1015.29 1015.37 1015.57 1015.73 1015.81 1015.81 1015.81 1015.81 1015.85 1015.85 1015.93 1016.05 1016.37 1016.53 1016.53 1016.65 1016.65 1016.69 1016.77 1017.05 1017.33 1017.21 1017.41 1017.21 1017.33 1017.69 1018.53 1018.57 1018.37 1018.61 1019.29 1019.69 1019.05 1018.77 1018.41 1018.45 1018.41 1018.37 1018.37 1018.49
1014.85 1014.77 1014.85 1014.89 1014.97 1014.93 1014.97 1015.01 1015.01 1015.01 1015.05 1015.17 1015.37 1015.17 1015.21 1015.21 1015.33 1015.45 1015.57 1015.33 1015.21 1015.17 1015.09 1015.05 1014.97 1015.21 1015.33 1015.33 1015.33 1015.45 1015.49 1015.57 1015.69 1015.77 1016.05 1016.29 1016.37 1016.49 1016.53 1016.53 1016.53 1016.61 1016.81 1017.41 1017.41 1017.33 1016.97 1017.13 1017.97 1019.33 1020.05 1018.93 1018.81 1019.13 1019.69 1019.21 1018.89 1018.45 1018.21 1018.29 1018.37 1018.49
1015.01 1015.01 1014.97 1014.93 1014.93 1014.93 1015.09 1015.17 1015.05 1015.01 1014.93 1015.13 1015.09 1015.25 1015.33 1015.49 1015.33 1015.29 1015.29 1015.21 1015.13 1014.97 1014.93 1014.85 1014.73 1014.73 1014.89 1015.01 1014.97 1015.13 1015.25 1015.37 1015.49 1015.61 1015.77 1015.97 1016.05 1016.05 1016.09 1016.09 1016.13 1016.37 1016.45 1016.73 1017.13 1017.13 1016.97 1016.89 1017.45 1018.25 1018.37 1018.37 1019.01 1019.45 1018.93 1018.21 1018.53 1018.61 1018.17 1018.45 1018.33 1018.37
1015.29 1015.17 1015.13 1015.01 1014.97 1015.09 1015.25 1015.37 1015.49 1015.65 1015.81 1015.81 1015.85 1015.77 1015.85 1015.69 1015.41 1015.41 1015.29 1014.81 1014.69 1014.61 1014.69 1014.69 1014.65 1014.57 1014.53 1014.57 1014.69 1014.77 1014.97 1015.17 1015.29 1015.41 1015.53 1015.65 1015.65 1015.69 1015.81 1015.97 1015.85 1016.01 1016.25 1016.29 1016.57 1016.93 1017.05 1016.73 1016.93 1017.49 1017.37 1016.77 1017.01 1017.89 1018.25 1018.01 1018.41 1019.49 1018.33 1018.17 1018.29 1018.21
1015.61 1015.57 1015.49 1015.41 1015.17 1015.17 1015.37 1015.37 1015.41 1015.45 1015.45 1015.57 1015.81 1015.49 1015.13 1014.81 1014.85 1014.73 1014.65 1014.69 1014.57 1014.49 1014.49 1014.61 1014.57 1014.41 1014.29 1014.29 1014.41 1014.53 1014.73 1014.93 1015.01 1015.13 1015.29 1015.49 1015.53 1015.49 1015.57 1015.73 1015.69 1015.77 1015.89 1016.09 1016.41 1016.85 1016.81 1016.73 1016.89 1017.01 1017.17 1017.37 1016.73 1016.81 1016.81 1017.85 1018.77 1018.65 1019.65 1018.93 1018.65 1018.41
1015.77 1015.73 1015.77 1015.65 1015.53 1015.41 1015.53 1015.53 1015.49 1015.41 1015.33 1015.37 1015.33 1015.37 1015.09 1014.89 1014.57 1014.53 1014.65 1014.61 1014.53 1014.45 1014.37 1014.29 1014.37 1014.37 1014.29 1014.37 1014.37 1014.41 1014.53 1014.77 1014.93 1014.97 1015.05 1015.21 1015.33 1015.29 1015.33 1015.29 1015.41 1015.45 1015.65 1015.89 1016.17 1016.49 1016.53 1016.57 1017.13 1017.41 1017.53 1018.21 1017.89 1016.97 1016.57 1016.77 1017.17 1018.09 1018.57 1019.29 1019.17 1018.45
1016.25 1016.09 1016.05 1015.93 1015.93 1015.81 1015.65 1015.57 1015.53 1015.49 1015.61 1015.37 1015.21 1015.13 1014.89 1014.73 1014.77 1014.65 1014.81 1014.77 1014.85 1014.61 1014.33 1014.21 1014.17 1014.25 1014.21 1014.33 1014.57 1014.53 1014.45 1014.69 1014.97 1015.05 1014.89 1014.85 1014.93 1015.01 1015.05 1015.13 1015.33 1015.41 1015.81 1015.89 1015.85 1015.97 1016.17 1016.37 1016.65 1017.33 1017.85 1018.21 1018.09 1017.13 1016.73 1016.77 1016.89 1017.29 1018.05 1018.57 1018.61 1018.93
1016.77 1016.61 1016.53 1016.41 1016.25 1016.09 1015.89 1015.73 1015.77 1015.65 1015.65 1015.57 1015.37 1015.25 1015.17 1015.17 1015.05 1014.89 1015.01 1014.97 1015.25 1015.01 1014.65 1014.45 1014.25 1014.25 1014.25 1014.21 1014.61 1014.93 1014.81 1014.61 1014.77 1014.77 1014.81 1014.81 1014.81 1014.85 1014.97 1015.01 1015.01 1015.13 1015.17 1015.45 1015.53 1015.73 1015.89 1015.89 1016.01 1016.45 1017.13 1017.41 1017.49 1016.97 1017.01 1017.01 1017.01 1017.25 1017.49 1017.57 1018.25 1018.45
1017.25 1017.09 1016.93 1016.81 1016.61 1016.49 1016.25 1016.05 1016.05 1016.01 1015.97 1015.89 1015.73 1015.57 1015.53 1015.45 1015.25 1015.09 1015.05 1014.97 1014.93 1014.85 1014.61 1014.57 1014.45 1014.41 1014.53 1014.53 1014.45 1014.41 1014.77 1014.65 1014.41 1014.57 1014.69 1014.69 1014.69 1014.69 1014.69 1014.73 1014.69 1014.85 1015.01 1015.05 1015.33 1015.57 1015.65 1015.65 1015.77 1015.97 1016.33 1016.61 1016.53 1016.61 1016.85 1017.13 1016.97 1016.97 1017.33 1017.85 1018.05 1018.09
1017.37 1017.29 1017.25 1017.17 1017.01 1016.81 1016.69 1016.57 1016.45 1016.33 1016.21 1016.09 1015.97 1015.93 1015.93 1015.85 1015.61 1015.45 1015.33 1015.21 1014.89 1014.73 1014.65 1014.57 1014.45 1014.41 1014.53 1014.45 1014.29 1014.25 1014.53 1014.89 1014.53 1014.41 1014.49 1014.45 1014.49 1014.45 1014.45 1014.49 1014.53 1014.85 1014.85 1014.69 1014.97 1015.33 1015.41 1015.53 1015.69 1015.77 1015.93 1016.01 1016.05 1016.05 1016.17 1016.33 1016.21 1016.25 1016.69 1017.09 1017.29 1017.61
1017.65 1017.45 1017.49 1017.45 1017.37 1017.25 1017.01 1016.93 1016.85 1016.65 1016.57 1016.49 1016.49 1016.29 1016.01 1015.85 1015.69 1015.69 1015.45 1015.25 1015.09 1015.01 1014.77 1014.65 1014.41 1014.41 1014.37 1014.45 1014.41 1014.25 1014.29 1014.61 1014.53 1014.25 1014.17 1014.25 1014.29 1014.29 1014.29 1014.29 1014.33 1014.45 1014.45 1014.61 1014.81 1014.97 1015.13 1015.17 1015.33 1015.53 1015.69 1015.77 1015.85 1015.93 1015.77 1015.65 1015.73 1015.97 1015.97 1016.21 1016.69 1017.45
1017.73 1017.57 1017.53 1017.49 1017.45 1017.41 1017.33 1017.25 1017.13 1017.09 1017.01 1016.93 1016.81 1016.61 1016.41 1016.25 1015.97 1015.73 1015.57 1015.45 1015.33 1015.13 1014.93 1014.77 1014.53 1014.41 1014.33 1014.41 1014.45 1014.29 1014.01 1013.89 1013.93 1014.01 1013.93 1013.89 1013.93 1014.05 1014.05 1014.13 1014.25 1014.41 1014.41 1014.33 1014.49 1014.69 1014.77 1014.85 1015.01 1015.13 1015.29 1015.57 1015.61 1015.61 1015.57 1015.81 1016.01 1015.65 1015.85 1016.17 1016.61 1016.89
1017.77 1017.49 1017.45 1017.49 1017.45 1017.53 1017.49 1017.33 1017.25 1017.25 1017.17 1017.01 1016.93 1016.73 1016.57 1016.37 1016.21 1016.09 1015.81 1015.53 1015.29 1015.09 1015.05 1014.77 1014.69 1014.41 1014.21 1014.25 1014.29 1014.37 1014.33 1014.09 1013.89 1013.85 1013.77 1013.69 1013.73 1013.81 1013.85 1013.93 1014.13 1014.25 1014.33 1014.29 1014.45 1014.61 1014.77 1014.73 1014.93 1015.01 1015.17 1015.13 1015.21 1015.37 1015.41 1016.13 1016.33 1015.61 1015.41 1015.65 1015.93 1016.33
1017.93 1017.77 1017.81 1017.65 1017.61 1017.33 1017.45 1017.41 1017.29 1017.21 1017.13 1017.05 1016.97 1016.81 1016.65 1016.49 1016.37 1016.21 1016.05 1015.81 1015.53 1015.25 1015.01 1014.77 1014.57 1014.53 1014.33 1014.21 1014.25 1014.33 1014.29 1014.21 1013.93 1013.85 1013.81 1013.81 1013.85 1013.97 1013.93 1014.01 1014.09 1014.29 1014.21 1014.05 1014.29 1014.37 1014.49 1014.61 1014.73 1014.77 1014.85 1014.81 1015.01 1015.13 1015.13 1015.53 1015.53 1015.21 1015.17 1015.29 1015.57 1015.77
1018.09 1017.89 1017.81 1017.77 1017.69 1017.45 1017.57 1017.53 1017.21 1016.93 1016.97 1016.89 1016.93 1016.89 1016.77 1016.65 1016.53 1016.37 1016.17 1015.97 1015.77 1015.45 1015.13 1014.85 1014.61 1014.41 1014.33 1014.29 1014.21 1014.13 1014.13 1014.09 1013.97 1013.93 1013.97 1013.97 1014.05 1014.05 1013.89 1013.89 1014.01 1014.01 1014.05 1014.01 1014.05 1014.13 1014.33 1014.53 1014.49 1014.53 1014.61 1014.65 1014.73 1014.97 1015.17 1014.97 1014.81 1014.81 1014.89 1015.01 1015.13 1015.37
Wind_Speed
7 8 8 8 6 6 7 8 7 8 8 7 8 8 7 7 7 7 6 5 4 3 3 3 4 4 7 4 3 2 5 3 2 2 3 3 4 6 8 8 7 7 7 8 6 4 1 1 3 6 8 8 11 6 6 5 7 8 7 7 7 6
6 5 7 6 6 6 6 6 6 6 6 6 6 7 5 5 6 5 6 4 4 4 3 4 3 6 3 4 3 6 5 3 1 1 2 3 4 6 7 8 8 8 8 8 8 2 1 3 4 6 7 9 6 5 2 5 7 8 8 7 7 6
7 8 8 6 4 5 6 4 5 5 5 6 7 7 6 6 5 5 6 6 4 2 2 3 2 5 4 5 4 5 5 3 2 2 2 3 4 6 7 8 9 9 8 9 6 3 3 2 3 7 8 5 3 7 2 8 8 8 8 7 5 10
8 8 6 4 5 2 2 2 3 4 4 5 4 2 1 3 1 1 4 3 3 3 1 2 2 7 8 4 4 4 5 5 4 3 4 3 5 6 7 8 8 8 6 4 4 4 5 4 3 4 4 4 6 3 3 6 7 7 6 8 6 11
9 9 10 6 7 6 6 4 2 3 4 3 5 4 4 4 3 2 0 4 4 3 3 2 1 2 3 6 5 4 3 3 3 4 5 4 3 4 5 5 4 5 4 6 7 6 5 5 5 5 6 7 5 4 3 7 8 7 6 6 5 10
7 7 8 6 7 8 6 5 4 4 5 5 5 5 5 7 4 2 3 2 4 5 3 1 2 3 2 3 6 6 5 4 5 5 6 5 4 4 5 4 4 5 5 6 7 8 6 5 4 2 3 1 1 1 5 7 8 8 7 6 6 10
6 7 7 7 5 5 5 6 6 6 6 6 5 5 5 6 3 3 3 3 3 4 5 4 4 4 2 3 3 5 6 5 4 4 5 6 4 5 5 4 4 4 5 6 6 4 2 2 3 3 3 3 4 4 5 9 8 8 7 6 7 11
7 7 4 6 7 8 7 8 7 7 6 5 5 5 5 4 4 4 5 4 4 4 6 6 5 4 2 1 3 3 5 6 5 5 4 5 4 5 5 4 4 5 6 5 5 3 2 3 0 3 5 1 0 0 2 6 9 9 7 7 6 9
8 8 6 5 5 2 3 4 4 5 5 5 4 5 5 4 5 5 6 6 5 4 4 4 4 5 3 5 4 2 2 0 6 6 5 5 5 4 4 4 5 5 4 5 4 3 3 3 2 1 2 2 1 1 3 4 8 9 9 7 6 8
8 7 6 6 5 4 5 4 4 4 5 6 6 6 7 6 5 4 4 5 5 4 5 5 4 5 5 5 3 1 2 2 2 1 5 6 5 5 4 4 4 4 6 5 5 3 1 2 2 2 3 3 1 1 2 2 3 9 9 6 6 6
8 8 8 7 5 6 5 4 3 3 5 6 6 7 6 6 6 6 6 4 3 4 4 5 6 5 5 5 3 2 2 1 1 3 3 5 5 4 5 4 5 4 3 2 2 5 2 3 4 3 2 4 2 1 2 2 2 10 9 8 7 6
7 8 7 7 6 6 6 6 6 5 5 5 6 6 6 6 6 5 6 5 5 5 5 5 5 5 4 4 4 2 1 1 3 2 2 3 7 4 4 5 5 4 3 1 5 6 6 4 4 4 4 3 2 2 2 1 2 4 9 9 8 7
8 8 8 7 7 6 6 6 6 5 5 4 4 4 4 5 3 2 1 3 4 6 5 4 3 3 4 3 3 3 2 2 2 1 3 5 5 6 3 3 2 3 2 4 3 3 8 6 4 4 3 4 2 2 3 2 1 3 5 8 8 8
5 7 5 5 5 5 5 4 4 5 4 5 5 5 5 5 5 3 4 7 8 5 4 2 4 2 3 2 3 3 3 2 2 3 4 5 2 2 4 3 2 2 2 4 3 3 7 9 5 2 3 3 3 3 4 2 4 1 3 3 7 8
5 5 5 4 4 4 4 5 5 5 5 3 4 4 4 4 6 7 12 10 8 8 4 1 3 2 4 3 4 3 3 3 3 3 4 2 2 2 3 5 4 3 2 1 5 4 7 7 3 1 2 2 2 3 1 2 3 3 2 2 4 5
5 5 5 4 5 4 5 4 3 3 2 2 2 2 4 2 3 2 4 9 12 6 4 4 2 3 4 5 5 4 3 3 4 3 5 3 3 4 4 3 4 4 3 4 4 1 5 5 1 2 7 2 1 3 2 2 3 2 3 3 2 4
6 5 5 5 5 4 2 3 2 1 2 3 3 2 3 5 6 4 5 9 7 2 5 3 5 6 3 2 2 1 2 3 3 4 4 5 4 5 4 4 1 2 6 4 6 5 6 4 4 2 5 3 1 1 3 3 3 3 3 3 3 4
4 3 3 2 1 2 3 2 1 2 1 4 2 3 3 4 5 8 9 8 6 1 2 6 7 8 7 6 6 4 5 5 4 4 4 5 5 4 3 2 4 3 2 3 3 5 4 3 4 2 5 5 2 2 2 3 3 2 1 3 3 3
3 3 3 2 2 1 2 2 3 3 3 5 2 1 3 4 4 2 2 4 5 3 3 5 5 5 6 5 6 8 7 5 5 5 4 4 5 6 5 4 5 5 1 5 3 5 8 4 2 1 3 7 3 3 2 2 1 2 2 1 1 2
4 3 4 2 2 2 2 2 3 4 5 4 2 0 2 4 1 4 4 5 4 3 5 4 2 2 5 4 4 5 5 6 5 5 6 6 6 6 6 6 6 3 2 3 6 4 4 3 3 4 7 10 4 3 1 2 2 1 2 2 2 2
5 3 2 3 2 2 2 2 2 2 2 2 3 0 2 2 2 2 3 4 4 6 5 2 3 2 2 4 4 4 4 5 6 5 5 6 6 6 5 6 3 3 4 4 3 5 5 1 3 6 9 8 3 2 2 1 1 1 2 2 1 2
3 2 4 3 1 1 1 2 3 2 1 1 1 0 1 2 2 2 4 4 4 4 3 2 3 3 4 5 6 6 6 6 6 6 6 5 6 6 6 6 4 3 3 6 5 5 5 6 5 8 7 3 3 1 2 2 2 2 1 1 2 1
4 3 4 3 3 3 3 3 3 1 1 0 3 2 3 2 2 2 3 3 3 3 3 4 4 5 5 6 6 5 6 6 7 7 7 7 7 7 6 7 7 6 5 4 5 4 6 7 5 5 4 3 3 3 2 2 2 2 3 3 3 3
4 3 3 2 2 2 3 1 2 2 1 1 0 2 2 2 3 3 3 4 4 3 5 6 6 6 6 5 5 6 6 6 7 6 6 7 8 7 7 6 6 7 6 5 5 7 6 6 5 2 6 5 3 4 2 6 5 4 4 4 4 4
5 5 4 4 3 2 3 3 1 1 1 1 2 2 1 2 2 2 3 4 5 6 6 6 6 5 6 7 6 6 6 6 6 6 6 6 7 7 7 7 8 8 8 8 7 5 6 6 7 10 8 3 2 1 4 2 7 2 5 5 5 5
7 6 6 5 4 4 3 3 2 2 2 1 2 2 3 3 3 4 4 3 4 6 6 5 6 7 7 6 5 6 6 6 6 6 7 7 7 6 7 8 8 8 9 8 7 6 6 2 5 8 11 4 1 1 5 2 5 3 3 3 3 5
6 6 8 8 8 5 3 4 4 3 2 2 3 2 2 2 3 3 3 4 3 2 5 6 6 7 5 5 5 6 6 7 6 6 6 6 7 8 7 8 7 8 8 8 7 6 7 5 1 6 6 7 2 2 1 6 4 4 2 3 4 4
7 7 7 8 8 7 6 6 6 4 4 4 2 2 2 3 3 3 4 3 3 3 3 4 3 5 7 5 5 5 6 6 6 5 6 8 8 7 7 7 8 7 6 5 7 8 7 6 6 2 3 6 8 5 3 2 4 6 3 4 4 2
9 8 9 9 8 8 7 5 4 4 5 4 5 5 5 4 4 3 4 3 5 5 3 4 4 4 5 5 6 6 5 6 5 7 8 8 7 8 10 9 7 9 8 8 8 6 4 5 6 7 7 8 8 6 3 3 3 6 4 4 4 7
12 9 9 10 10 10 9 8 8 7 7 5 5 5 5 5 5 5 5 1 4 6 5 5 3 3 6 3 5 9 7 6 6 7 6 7 7 9 7 9 10 8 9 9 7 7 8 5 5 5 5 8 8 4 3 3 4 4 2 2 2 5
9 8 9 9 10 10 9 9 8 9 9 10 9 8 6 5 6 6 5 3 2 4 5 4 4 3 5 6 6 7 5 6 4 6 7 7 9 9 8 10 10 9 9 10 8 7 6 5 4 6 8 8 6 6 6 6 5 5 4 2 2 3
7 7 7 8 9 10 10 9 11 10 10 9 9 7 8 9 8 9 6 6 6 4 3 3 3 3 3 4 6 6 6 7 5 5 6 6 7 8 9 9 9 7 9 9 7 7 6 7 8 6 7 6 5 5 6 6 5 5 6 6 6 4
9 7 7 6 7 8 9 9 10 11 12 12 12 12 10 8 9 8 8 7 6 5 5 5 4 4 2 1 4 5 2 5 6 5 5 6 7 8 10 10 10 11 10 9 8 9 8 9 9 8 8 6 4 5 6 5 4 4 3 4 6 5
8 6 6 6 6 7 7 7 8 9 9 8 9 9 9 10 10 9 8 8 7 6 6 5 5 4 3 3 5 6 5 4 4 6 6 6 6 7 9 8 9 8 10 8 7 9 10 10 9 9 6 6 7 6 4 2 5 4 5 5 5 7
7 6 5 5 5 6 6 7 7 7 7 7 7 8 7 7 9 10 10 10 8 7 7 8 8 4 2 3 4 4 6 7 5 4 6 5 4 6 8 8 6 7 8 7 7 8 8 9 9 9 8 8 7 5 5 7 9 6 5 4 5 4
9 9 8 5 4 4 6 6 5 5 6 6 7 7 7 7 8 9 10 10 10 8 7 8 7 6 4 3 4 4 4 6 6 6 6 7 7 6 7 6 6 7 9 6 9 11 8 9 9 10 10 9 7 8 6 8 8 6 6 5 5 3
8 8 7 6 4 8 6 6 7 1 6 5 5 8 8 10 10 9 9 9 9 11 11 9 7 6 6 4 4 4 4 5 6 6 7 7 7 10 8 4 6 5 6 5 6 8 7 8 9 9 8 10 9 6 9 8 7 7 6 4 4 4
Wind_Direction
121 131 131 128 123 123 125 117 105 104 107 108 113 118 116 136 140 152 157 160 157 167 157 139 153 146 145 154 167 160 163 164 153 104 102 142 154 151 143 138 142 142 141 134 133 135 135 303 289 302 298 301 313 315 274 104 99 99 107 102 99 105
104 117 125 118 118 119 130 143 147 137 143 132 135 140 152 168 179 165 180 168 188 202 179 152 208 137 181 147 167 152 164 164 154 117 114 138 161 165 153 154 156 160 155 147 151 154 180 240 263 268 284 290 300 288 290 76 101 101 98 100 102 112
107 100 84 60 73 120 144 161 153 151 157 164 169 173 180 201 191 178 187 192 187 72 6 338 205 163 162 164 155 174 156 177 176 189 156 175 167 169 170 170 175 174 170 170 181 179 192 184 223 244 256 280 273 262 62 86 79 82 86 99 100 116
112 98 99 124 87 39 159 150 152 156 152 174 179 134 18 282 256 165 188 99 79 101 10 342 295 221 139 142 139 188 181 177 198 201 200 178 183 180 181 192 193 183 188 204 234 192 186 182 199 197 227 232 245 201 128 107 99 99 109 108 121 124
135 127 132 134 141 186 184 143 109 128 131 146 162 180 189 240 227 141 319 125 154 140 178 117 256 326 187 151 163 175 186 195 189 202 192 222 185 180 189 200 203 201 218 220 231 238 189 182 198 190 209 223 211 191 117 100 106 100 93 96 116 125
101 104 120 152 170 169 165 137 148 168 158 175 170 166 192 222 188 170 174 161 168 159 150 121 224 237 279 226 168 168 176 198 194 201 180 230 202 161 209 208 204 198 224 227 226 240 190 177 209 157 132 173 270 202 159 109 101 105 114 124 117 124
133 137 153 165 166 152 164 171 166 174 178 177 162 161 201 223 177 162 181 183 163 171 118 229 204 226 203 292 258 162 180 180 192 212 173 227 209 168 215 203 208 216 222 246 248 211 173 188 210 154 147 181 215 200 112 118 122 123 124 124 130 131
143 144 154 169 173 168 177 180 179 172 183 179 166 165 200 218 213 173 177 190 190 184 168 176 194 194 194 297 271 273 194 173 173 193 208 229 233 180 207 207 206 212 233 238 244 207 206 186 263 155 200 172 40 205 163 120 129 129 129 126 133 143
142 152 160 166 172 178 185 179 173 160 182 188 171 174 193 189 213 214 191 184 194 187 176 168 182 173 167 208 243 271 314 140 178 173 193 225 241 200 226 221 215 217 227 245 252 188 226 128 234 278 104 209 182 39 79 108 130 132 126 133 139 145
161 162 158 169 176 174 198 191 196 177 176 183 191 175 182 183 201 209 208 199 192 184 180 178 179 173 179 194 218 249 272 220 299 133 170 219 235 182 230 246 248 224 229 216 236 212 176 118 213 204 233 89 80 263 30 136 172 126 126 130 130 141
164 165 165 183 173 188 180 190 207 193 196 199 188 184 182 179 190 198 221 200 192 178 194 195 180 175 179 178 181 210 227 302 297 65 46 311 270 199 200 220 247 245 255 290 343 302 152 203 229 179 225 131 203 128 204 280 93 119 129 136 135 136
165 162 164 168 168 176 184 192 191 216 210 199 190 193 174 170 183 195 200 193 200 193 212 195 189 164 176 165 173 182 227 352 339 332 202 195 285 256 211 210 237 259 268 28 16 347 285 200 225 204 170 165 146 173 186 267 61 102 133 135 143 140
173 166 177 174 174 173 193 186 183 195 213 212 206 205 173 181 175 184 255 253 221 211 216 178 166 157 147 156 151 163 173 203 202 253 271 222 238 272 240 214 273 304 330 47 71 275 286 258 228 213 165 112 196 202 176 125 86 86 118 142 138 143
164 173 175 163 166 180 192 195 195 201 207 192 201 209 194 156 175 161 172 206 234 244 242 187 141 162 115 134 160 178 184 192 215 212 228 272 246 45 347 282 219 252 269 117 215 222 286 270 247 212 114 163 186 217 112 163 115 82 74 112 130 147
167 172 180 162 177 189 191 209 196 204 209 197 198 200 202 190 175 185 175 190 192 216 210 234 111 103 128 242 170 180 189 195 205 210 222 213 289 125 166 277 214 203 293 243 191 207 217 268 297 29 251 189 226 95 76 94 106 124 160 141 127 146
158 167 178 171 180 211 190 217 228 193 223 233 257 295 273 234 182 213 192 175 158 176 125 161 203 190 183 195 157 171 193 166 188 208 219 187 244 226 182 218 243 190 190 250 242 154 312 288 21 327 305 275 62 116 152 109 130 173 159 132 163 131
149 180 181 176 189 196 228 234 260 344 328 326 313 275 310 329 7 314 341 12 7 66 107 188 221 209 185 314 359 101 160 177 185 214 218 199 225 248 208 191 213 225 174 225 253 182 199 234 320 286 264 258 147 173 155 151 156 196 152 172 163 130
135 164 148 164 173 179 224 250 299 324 331 275 286 308 341 55 52 6 26 50 14 327 185 253 205 183 174 190 175 204 199 187 191 208 208 197 208 252 268 219 221 234 225 217 303 331 252 155 220 173 257 270 203 195 175 162 172 124 156 157 117 137
136 110 68 95 118 171 211 220 226 215 224 255 215 238 41 58 59 45 136 200 210 224 256 218 218 206 165 182 181 177 184 187 184 194 201 198 211 207 218 230 227 225 174 103 148 253 287 279 222 312 310 271 198 208 177 127 121 137 105 74 123 161
103 87 127 170 156 208 244 218 213 202 206 172 330 294 109 103 166 166 200 202 207 211 225 206 171 223 179 164 186 183 168 182 193 198 200 203 210 212 204 214 225 226 243 148 148 175 239 247 323 251 239 241 202 180 147 141 151 119 114 138 166 138
84 93 46 55 36 355 359 298 292 289 342 58 140 317 70 94 170 136 128 185 210 212 223 209 154 159 180 169 185 195 197 182 186 203 199 208 208 209 211 215 213 162 201 233 218 159 204 108 208 239 239 228 194 183 145 147 173 165 169 162 177 168
56 70 74 53 49 222 237 322 333 38 8 30 38 164 197 178 204 194 194 192 190 208 239 214 156 187 192 197 192 196 202 208 195 202 205 203 202 206 202 204 190 198 188 214 228 178 165 142 199 219 219 191 176 189 62 287 214 198 195 173 180 213
49 34 55 25 352 15 25 4 332 10 271 179 131 201 197 218 205 217 200 189 208 221 227 235 199 195 204 201 199 198 203 206 207 196 200 204 202 201 199 198 184 192 194 211 238 235 205 179 198 230 226 169 185 177 228 240 231 245 190 198 172 203
53 35 47 74 0 351 350 348 280 290 347 281 96 189 222 193 230 225 247 226 219 214 222 234 219 203 219 220 208 207 214 208 204 195 199 207 207 202 203 193 183 185 179 202 205 235 223 197 163 218 230 213 156 175 196 218 205 211 198 207 180 204
38 31 49 26 4 22 334 332 316 319 234 254 166 252 221 230 247 251 252 219 208 204 218 230 238 223 215 216 214 216 216 216 205 198 198 211 213 207 204 199 189 184 191 194 205 231 236 211 183 203 241 164 142 218 224 171 170 193 174 206 205 189
27 25 14 23 22 359 345 307 312 305 307 219 254 188 254 260 218 215 234 235 209 208 217 229 241 246 244 232 229 220 218 220 212 206 202 213 221 213 211 212 193 189 197 204 206 201 229 213 212 228 249 227 114 192 174 128 146 210 160 217 209 195
27 31 17 7 1 360 352 336 331 329 315 320 313 258 274 283 288 271 261 264 272 220 212 226 238 256 257 245 238 227 219 227 226 218 207 209 216 220 216 214 211 190 198 191 193 214 211 224 5 264 278 275 239 191 200 139 192 89 197 217 226 210
19 26 21 4 356 1 351 352 336 333 343 330 327 305 291 281 260 251 272 276 265 263 262 273 292 284 273 283 267 244 223 233 236 225 222 218 220 222 228 220 214 202 190 200 198 205 205 199 194 241 250 252 267 243 212 135 128 163 205 182 200 208
17 17 13 6 360 351 346 341 330 347 345 339 339 337 330 317 313 314 287 315 318 306 283 272 243 252 272 250 277 265 231 229 233 255 239 232 224 224 224 222 211 202 190 199 206 204 188 189 175 205 218 221 238 243 201 197 185 173 189 188 185 181
20 16 8 3 358 353 351 354 348 351 344 339 342 338 330 322 316 318 306 21 343 303 305 297 280 281 285 317 340 306 289 247 233 238 239 243 235 232 230 241 228 212 196 193 191 196 201 184 188 191 203 224 208 204 234 206 195 180 184 197 172 182
26 14 4 2 353 358 356 357 355 357 351 348 346 335 329 325 321 311 315 320 219 244 275 291 315 338 343 334 316 283 275 259 222 227 233 233 233 232 230 227 229 214 207 201 190 185 190 189 185 198 207 223 213 204 197 205 190 188 182 167 191 235
31 26 20 5 356 359 1 3 357 357 352 351 345 337 333 328 325 319 325 318 316 308 313 321 309 292 287 297 296 282 283 291 251 237 241 236 234 232 231 233 230 225 218 201 184 185 195 202 201 209 223 228 229 217 211 207 209 192 189 184 184 181
32 22 25 17 5 358 359 1 359 358 1 358 354 347 337 335 339 333 329 327 331 325 318 308 310 312 332 316 280 277 250 268 271 246 232 228 234 234 237 236 230 219 212 200 189 191 198 210 203 202 211 209 225 237 228 214 199 194 189 162 175 171
30 15 25 17 11 11 11 5 4 2 358 354 349 341 342 342 340 338 339 331 326 317 311 303 305 306 335 329 304 296 269 251 261 269 257 240 231 235 237 227 227 228 218 204 191 199 202 206 211 211 191 201 220 224 235 326 266 187 184 183 188 199
11 31 33 28 30 27 5 9 14 7 353 347 344 341 337 337 337 340 339 334 329 321 315 314 314 308 316 282 285 302 315 311 300 291 286 277 258 242 236 226 221 233 231 216 201 207 212 200 206 206 202 210 210 212 212 199 222 211 191 189 176 158
18 9 10 337 27 25 36 23 358 1 2 354 349 340 337 340 341 341 339 333 333 332 321 316 319 315 299 312 315 302 300 300 299 289 280 271 277 272 251 229 224 225 228 214 208 205 208 208 211 210 208 212 207 215 219 213 213 196 195 188 186 176
27 359 18 10 31 21 42 8 325 348 28 350 360 348 344 345 345 342 337 333 333 335 334 333 322 309 317 304 306 296 288 286 291 298 301 290 275 263 253 216 221 227 240 231 218 204 204 215 214 211 209 208 211 193 223 232 212 196 192 186 187 184